Time,TemperatureF,DewpointF,PressureIn,WindDirection,WindDirectionDegrees,WindSpeedMPH,WindSpeedGustMPH,Humidity,HourlyPrecipIn,Conditions,Clouds,dailyrainin,SoftwareType,DateUTC
2013-01-27 00:00:00,27.6,21.6,30.42,NNE,14,0.0,0.0,78,0.00,,CLR,0.00,VWS V14.01,2013-01-27 05:00:00,
2013-01-27 00:01:00,27.5,21.5,30.42,NNE,12,0.0,1.0,78,0.00,,CLR,0.00,VWS V14.01,2013-01-27 05:01:00,
2013-01-27 00:06:00,27.4,21.8,30.42,NNE,12,0.0,1.0,79,0.00,,CLR,0.00,VWS V14.01,2013-01-27 05:06:00,
2013-01-27 00:11:00,27.4,21.8,30.42,NNE,12,0.0,1.0,79,0.00,,CLR,0.00,VWS V14.01,2013-01-27 05:11:00,
2013-01-27 00:16:00,27.3,21.7,30.42,NNE,12,0.0,1.0,79,0.00,,CLR,0.00,VWS V14.01,2013-01-27 05:16:00,
2013-01-27 00:21:00,27.2,21.6,30.43,NE,38,0.0,1.0,79,0.00,,CLR,0.00,VWS V14.01,2013-01-27 05:21:00,
2013-01-27 00:26:00,27.1,21.8,30.43,NE,38,0.0,1.0,80,0.00,,CLR,0.00,VWS V14.01,2013-01-27 05:26:00,
2013-01-27 00:30:00,27.1,21.8,30.43,NE,38,0.0,1.0,80,0.00,,CLR,0.00,VWS V14.01,2013-01-27 05:30:00,
2013-01-27 00:31:00,27.0,21.4,30.43,NE,38,0.0,0.0,79,0.00,,CLR,0.00,VWS V14.01,2013-01-27 05:31:00,
2013-01-27 00:36:00,26.9,21.3,30.43,NE,38,0.0,0.0,79,0.00,,CLR,0.00,VWS V14.01,2013-01-27 05:36:00,
2013-01-27 00:41:00,26.9,21.6,30.42,NNE,30,0.0,0.0,80,0.00,,CLR,0.00,VWS V14.01,2013-01-27 05:41:00,
2013-01-27 00:46:00,26.9,21.3,30.42,NNE,30,0.0,0.0,79,0.00,,CLR,0.00,VWS V14.01,2013-01-27 05:46:00,
2013-01-27 00:51:00,27.1,21.8,30.43,NNE,30,0.0,0.0,80,0.00,,CLR,0.00,VWS V14.01,2013-01-27 05:51:00,
2013-01-27 00:56:00,27.0,21.4,30.43,NNE,30,0.0,0.0,79,0.00,,CLR,0.00,VWS V14.01,2013-01-27 05:56:00,
2013-01-27 01:00:00,27.0,21.4,30.43,NNE,30,0.0,0.0,79,0.00,,CLR,0.00,VWS V14.01,2013-01-27 06:00:00,
2013-01-27 01:01:00,27.0,21.4,30.43,NNE,30,0.0,0.0,79,0.00,,CLR,0.00,VWS V14.01,2013-01-27 06:01:00,
2013-01-27 01:06:00,26.8,21.5,30.43,NNE,30,0.0,0.0,80,0.00,,CLR,0.00,VWS V14.01,2013-01-27 06:06:00,
2013-01-27 01:11:00,26.6,21.3,30.43,NNE,30,0.0,0.0,80,0.00,,CLR,0.00,VWS V14.01,2013-01-27 06:11:00,
2013-01-27 01:16:00,26.4,21.4,30.44,NNE,30,0.0,0.0,81,0.00,,CLR,0.00,VWS V14.01,2013-01-27 06:16:00,
2013-01-27 01:21:00,26.3,21.0,30.44,NNE,30,0.0,0.0,80,0.00,,CLR,0.00,VWS V14.01,2013-01-27 06:21:00,
2013-01-27 01:26:00,26.3,21.0,30.44,NNE,30,0.0,0.0,80,0.00,,CLR,0.00,VWS V14.01,2013-01-27 06:26:00,
2013-01-27 01:30:00,26.4,21.4,30.44,NNE,30,0.0,0.0,81,0.00,,CLR,0.00,VWS V14.01,2013-01-27 06:30:00,
2013-01-27 01:31:00,26.4,21.4,30.44,NNE,30,0.0,0.0,81,0.00,,CLR,0.00,VWS V14.01,2013-01-27 06:31:00,
2013-01-27 01:36:00,26.3,21.0,30.44,NNE,30,0.0,0.0,80,0.00,,CLR,0.00,VWS V14.01,2013-01-27 06:36:00,
2013-01-27 01:41:00,26.1,21.1,30.44,NNE,30,0.0,0.0,81,0.00,,CLR,0.00,VWS V14.01,2013-01-27 06:41:00,
2013-01-27 01:46:00,26.0,21.0,30.44,NNE,30,0.0,0.0,81,0.00,,CLR,0.00,VWS V14.01,2013-01-27 06:46:00,
2013-01-27 01:51:00,25.9,20.9,30.44,NNE,30,0.0,0.0,81,0.00,,CLR,0.00,VWS V14.01,2013-01-27 06:51:00,
2013-01-27 01:56:00,25.8,21.1,30.45,NNE,30,0.0,0.0,82,0.00,,CLR,0.00,VWS V14.01,2013-01-27 06:56:00,
2013-01-27 02:00:00,25.8,20.8,30.45,NNE,30,0.0,0.0,81,0.00,,CLR,0.00,VWS V14.01,2013-01-27 07:00:00,
2013-01-27 02:01:00,25.7,20.7,30.45,NNE,30,0.0,0.0,81,0.00,,CLR,0.00,VWS V14.01,2013-01-27 07:01:00,
2013-01-27 02:06:00,25.7,20.7,30.45,NNE,26,0.0,0.0,81,0.00,,CLR,0.00,VWS V14.01,2013-01-27 07:06:00,
2013-01-27 02:13:00,25.7,20.7,30.46,NNE,26,0.0,0.0,81,0.00,,CLR,0.00,VWS V14.01,2013-01-27 07:13:00,
2013-01-27 02:18:00,25.7,21.0,30.45,NNE,26,0.0,0.0,82,0.00,,CLR,0.00,VWS V14.01,2013-01-27 07:18:00,
2013-01-27 02:23:00,25.6,20.9,30.46,NNE,26,0.0,0.0,82,0.00,,CLR,0.00,VWS V14.01,2013-01-27 07:23:00,
2013-01-27 02:28:00,25.6,20.6,30.46,NNE,26,0.0,0.0,81,0.00,,CLR,0.00,VWS V14.01,2013-01-27 07:28:00,
2013-01-27 02:30:00,25.6,20.6,30.46,NNE,26,0.0,0.0,81,0.00,,CLR,0.00,VWS V14.01,2013-01-27 07:30:00,
2013-01-27 02:33:00,25.6,20.9,30.46,NNE,26,0.0,0.0,82,0.00,,CLR,0.00,VWS V14.01,2013-01-27 07:33:00,
2013-01-27 02:38:00,25.4,20.7,30.45,NNE,26,0.0,0.0,82,0.00,,CLR,0.00,VWS V14.01,2013-01-27 07:38:00,
2013-01-27 02:43:00,25.3,20.3,30.45,NNE,26,0.0,0.0,81,0.00,,CLR,0.00,VWS V14.01,2013-01-27 07:43:00,
2013-01-27 02:48:00,25.3,20.6,30.45,NNE,26,0.0,0.0,82,0.00,,CLR,0.00,VWS V14.01,2013-01-27 07:48:00,
2013-01-27 02:53:00,25.2,20.5,30.45,NNE,26,0.0,0.0,82,0.00,,CLR,0.00,VWS V14.01,2013-01-27 07:53:00,
2013-01-27 02:58:00,25.0,20.3,30.45,NNE,26,0.0,0.0,82,0.00,,CLR,0.00,VWS V14.01,2013-01-27 07:58:00,
2013-01-27 03:00:00,24.9,20.2,30.45,NNE,26,0.0,0.0,82,0.00,,CLR,0.00,VWS V14.01,2013-01-27 08:00:00,
2013-01-27 03:03:00,24.8,20.4,30.45,NNE,26,0.0,0.0,83,0.00,,CLR,0.00,VWS V14.01,2013-01-27 08:03:00,
2013-01-27 03:08:00,24.7,20.3,30.45,NNE,26,0.0,0.0,83,0.00,,CLR,0.00,VWS V14.01,2013-01-27 08:08:00,
2013-01-27 03:13:00,24.5,20.6,30.45,NNE,26,0.0,0.0,85,0.00,,CLR,0.00,VWS V14.01,2013-01-27 08:13:00,
2013-01-27 03:18:00,24.3,20.5,30.45,NNE,26,0.0,0.0,85,0.00,,CLR,0.00,VWS V14.01,2013-01-27 08:18:00,
2013-01-27 03:23:00,24.2,20.4,30.46,NNE,26,0.0,0.0,85,0.00,,CLR,0.00,VWS V14.01,2013-01-27 08:23:00,
2013-01-27 03:28:00,23.9,19.8,30.46,NNE,26,0.0,0.0,84,0.00,,CLR,0.00,VWS V14.01,2013-01-27 08:28:00,
2013-01-27 03:30:00,23.8,19.7,30.46,NNE,26,0.0,0.0,84,0.00,,CLR,0.00,VWS V14.01,2013-01-27 08:30:00,
2013-01-27 03:33:00,23.6,19.8,30.46,NNE,26,0.0,0.0,85,0.00,,CLR,0.00,VWS V14.01,2013-01-27 08:33:00,
2013-01-27 03:38:00,23.6,20.0,30.46,NNE,26,0.0,0.0,86,0.00,,CLR,0.00,VWS V14.01,2013-01-27 08:38:00,
2013-01-27 03:43:00,23.7,19.9,30.46,NNE,26,0.0,0.0,85,0.00,,CLR,0.00,VWS V14.01,2013-01-27 08:43:00,
2013-01-27 03:48:00,23.9,20.1,30.46,NNE,26,0.0,0.0,85,0.00,,CLR,0.00,VWS V14.01,2013-01-27 08:48:00,
2013-01-27 03:53:00,24.0,19.9,30.47,NNE,26,0.0,0.0,84,0.00,,CLR,0.00,VWS V14.01,2013-01-27 08:53:00,
2013-01-27 03:58:00,24.2,19.8,30.47,NNE,26,0.0,0.0,83,0.00,,CLR,0.00,VWS V14.01,2013-01-27 08:58:00,
2013-01-27 04:00:00,24.2,20.1,30.47,NNE,26,0.0,0.0,84,0.00,,CLR,0.00,VWS V14.01,2013-01-27 09:00:00,
2013-01-27 04:03:00,24.2,20.1,30.47,NNE,26,0.0,0.0,84,0.00,,CLR,0.00,VWS V14.01,2013-01-27 09:03:00,
2013-01-27 04:08:00,24.0,19.9,30.47,NNE,26,0.0,0.0,84,0.00,,CLR,0.00,VWS V14.01,2013-01-27 09:08:00,
2013-01-27 04:13:00,23.9,19.8,30.47,NNE,26,0.0,0.0,84,0.00,,CLR,0.00,VWS V14.01,2013-01-27 09:13:00,
2013-01-27 04:18:00,23.9,19.8,30.47,NNE,26,0.0,0.0,84,0.00,,CLR,0.00,VWS V14.01,2013-01-27 09:18:00,
2013-01-27 04:23:00,24.1,19.7,30.47,NNE,26,0.0,0.0,83,0.00,,CLR,0.00,VWS V14.01,2013-01-27 09:23:00,
2013-01-27 04:28:00,24.4,20.3,30.47,NNE,26,0.0,0.0,84,0.00,,CLR,0.00,VWS V14.01,2013-01-27 09:28:00,
2013-01-27 04:30:00,24.4,20.3,30.47,NNE,26,0.0,0.0,84,0.00,,CLR,0.00,VWS V14.01,2013-01-27 09:30:00,
2013-01-27 04:33:00,24.5,20.4,30.47,NNE,26,0.0,0.0,84,0.00,,CLR,0.00,VWS V14.01,2013-01-27 09:33:00,
2013-01-27 04:38:00,24.6,20.5,30.47,NNE,26,0.0,0.0,84,0.00,,CLR,0.00,VWS V14.01,2013-01-27 09:38:00,
2013-01-27 04:43:00,24.5,20.1,30.47,NNE,26,0.0,0.0,83,0.00,,CLR,0.00,VWS V14.01,2013-01-27 09:43:00,
2013-01-27 04:48:00,24.4,20.0,30.47,NNE,26,0.0,0.0,83,0.00,,CLR,0.00,VWS V14.01,2013-01-27 09:48:00,
2013-01-27 04:53:00,24.4,20.0,30.47,NNE,26,0.0,0.0,83,0.00,,CLR,0.00,VWS V14.01,2013-01-27 09:53:00,
2013-01-27 04:58:00,24.2,19.8,30.47,NNE,26,0.0,0.0,83,0.00,,CLR,0.00,VWS V14.01,2013-01-27 09:58:00,
2013-01-27 05:00:00,24.2,19.8,30.47,NNE,26,0.0,0.0,83,0.00,,CLR,0.00,VWS V14.01,2013-01-27 10:00:00,
2013-01-27 05:03:00,24.0,19.6,30.48,NNE,26,0.0,0.0,83,0.00,,CLR,0.00,VWS V14.01,2013-01-27 10:03:00,
2013-01-27 05:08:00,23.8,20.0,30.48,NNE,26,0.0,0.0,85,0.00,,CLR,0.00,VWS V14.01,2013-01-27 10:08:00,
2013-01-27 05:13:00,23.7,19.9,30.48,NNE,26,0.0,0.0,85,0.00,,CLR,0.00,VWS V14.01,2013-01-27 10:13:00,
2013-01-27 05:18:00,23.6,19.8,30.48,NNE,26,0.0,0.0,85,0.00,,CLR,0.00,VWS V14.01,2013-01-27 10:18:00,
2013-01-27 05:23:00,23.5,19.9,30.48,NNE,26,0.0,0.0,86,0.00,,CLR,0.00,VWS V14.01,2013-01-27 10:23:00,
2013-01-27 05:28:00,23.3,19.5,30.48,NNE,26,0.0,0.0,85,0.00,,CLR,0.00,VWS V14.01,2013-01-27 10:28:00,
2013-01-27 05:30:00,23.3,19.5,30.48,NNE,26,0.0,0.0,85,0.00,,CLR,0.00,VWS V14.01,2013-01-27 10:30:00,
2013-01-27 05:33:00,23.1,19.5,30.48,NNE,26,0.0,0.0,86,0.00,,CLR,0.00,VWS V14.01,2013-01-27 10:33:00,
2013-01-27 05:38:00,23.1,19.5,30.47,NNE,26,0.0,0.0,86,0.00,,CLR,0.00,VWS V14.01,2013-01-27 10:38:00,
2013-01-27 05:43:00,23.0,19.5,30.47,NNE,26,0.0,0.0,86,0.00,,CLR,0.00,VWS V14.01,2013-01-27 10:43:00,
2013-01-27 05:48:00,22.7,19.1,30.48,NNE,26,0.0,0.0,86,0.00,,CLR,0.00,VWS V14.01,2013-01-27 10:48:00,
2013-01-27 05:53:00,22.2,18.7,30.48,NNE,26,0.0,0.0,86,0.00,,CLR,0.00,VWS V14.01,2013-01-27 10:53:00,
2013-01-27 05:58:00,21.9,18.9,30.48,NNE,26,0.0,0.0,88,0.00,,CLR,0.00,VWS V14.01,2013-01-27 10:58:00,
2013-01-27 06:00:00,21.8,18.8,30.49,NNE,26,0.0,0.0,88,0.00,,CLR,0.00,VWS V14.01,2013-01-27 11:00:00,
2013-01-27 06:03:00,21.7,18.7,30.49,NNE,26,0.0,0.0,88,0.00,,CLR,0.00,VWS V14.01,2013-01-27 11:03:00,
2013-01-27 06:08:00,21.6,18.9,30.49,NNE,26,0.0,0.0,89,0.00,,CLR,0.00,VWS V14.01,2013-01-27 11:08:00,
2013-01-27 06:13:00,21.6,19.1,30.49,NNE,26,0.0,0.0,90,0.00,,CLR,0.00,VWS V14.01,2013-01-27 11:13:00,
2013-01-27 06:18:00,21.7,19.2,30.50,NNE,26,0.0,0.0,90,0.00,,CLR,0.00,VWS V14.01,2013-01-27 11:18:00,
2013-01-27 06:23:00,21.9,19.7,30.50,NNE,26,0.0,0.0,91,0.00,,CLR,0.00,VWS V14.01,2013-01-27 11:23:00,
2013-01-27 06:28:00,22.1,19.9,30.50,NNE,26,0.0,0.0,91,0.00,,CLR,0.00,VWS V14.01,2013-01-27 11:28:00,
2013-01-27 06:30:00,22.1,19.9,30.50,NNE,26,0.0,0.0,91,0.00,,CLR,0.00,VWS V14.01,2013-01-27 11:30:00,
2013-01-27 06:33:00,22.2,20.0,30.50,NNE,26,0.0,0.0,91,0.00,,CLR,0.00,VWS V14.01,2013-01-27 11:33:00,
2013-01-27 06:38:00,22.6,20.4,30.50,NNE,26,0.0,0.0,91,0.00,,CLR,0.00,VWS V14.01,2013-01-27 11:38:00,
2013-01-27 06:43:00,22.9,20.7,30.51,NNE,26,0.0,0.0,91,0.00,,CLR,0.00,VWS V14.01,2013-01-27 11:43:00,
2013-01-27 06:48:00,23.1,20.9,30.50,NNE,26,0.0,0.0,91,0.00,,CLR,0.00,VWS V14.01,2013-01-27 11:48:00,
2013-01-27 06:53:00,23.3,21.1,30.50,NNE,26,0.0,0.0,91,0.00,,CLR,0.00,VWS V14.01,2013-01-27 11:53:00,
2013-01-27 06:58:00,23.3,21.1,30.51,NNE,26,0.0,0.0,91,0.00,,CLR,0.00,VWS V14.01,2013-01-27 11:58:00,
2013-01-27 07:00:00,23.3,21.1,30.51,NNE,26,0.0,0.0,91,0.00,,CLR,0.00,VWS V14.01,2013-01-27 12:00:00,
2013-01-27 07:03:00,23.3,21.1,30.51,NNE,26,0.0,0.0,91,0.00,,SCT010,0.00,VWS V14.01,2013-01-27 12:03:00,
2013-01-27 07:08:00,23.2,20.7,30.52,NNE,26,0.0,0.0,90,0.00,,SCT010,0.00,VWS V14.01,2013-01-27 12:08:00,
2013-01-27 07:13:00,23.0,20.5,30.52,NNE,26,0.0,0.0,90,0.00,,SCT010,0.00,VWS V14.01,2013-01-27 12:13:00,
2013-01-27 07:18:00,22.8,20.3,30.52,NNE,26,0.0,0.0,90,0.00,,SCT010,0.00,VWS V14.01,2013-01-27 12:18:00,
2013-01-27 07:23:00,22.7,20.2,30.52,NNE,26,0.0,0.0,90,0.00,,SCT010,0.00,VWS V14.01,2013-01-27 12:23:00,
2013-01-27 07:28:00,22.9,20.7,30.53,NNE,26,0.0,0.0,91,0.00,,SCT010,0.00,VWS V14.01,2013-01-27 12:28:00,
2013-01-27 07:30:00,22.9,20.7,30.53,NNE,26,0.0,0.0,91,0.00,,CLR,0.00,VWS V14.01,2013-01-27 12:30:00,
2013-01-27 07:33:00,23.0,20.8,30.53,NNE,26,0.0,0.0,91,0.00,,SCT010,0.00,VWS V14.01,2013-01-27 12:33:00,
2013-01-27 07:38:00,23.2,21.0,30.53,NNE,26,0.0,0.0,91,0.00,,SCT010,0.00,VWS V14.01,2013-01-27 12:38:00,
2013-01-27 07:43:00,23.5,21.0,30.53,NNE,26,0.0,0.0,90,0.00,,SCT010,0.00,VWS V14.01,2013-01-27 12:43:00,
2013-01-27 07:48:00,23.6,21.1,30.54,NNE,26,0.0,0.0,90,0.00,,SCT010,0.00,VWS V14.01,2013-01-27 12:48:00,
2013-01-27 07:53:00,23.6,21.1,30.55,NNE,26,0.0,0.0,90,0.00,,SCT010,0.00,VWS V14.01,2013-01-27 12:53:00,
2013-01-27 07:58:00,23.7,21.2,30.55,NNE,26,0.0,0.0,90,0.00,,SCT010,0.00,VWS V14.01,2013-01-27 12:58:00,
2013-01-27 08:00:00,23.8,21.3,30.55,NNE,26,0.0,0.0,90,0.00,,CLR,0.00,VWS V14.01,2013-01-27 13:00:00,
2013-01-27 08:03:00,23.8,21.3,30.55,NNE,26,0.0,0.0,90,0.00,,CLR,0.00,VWS V14.01,2013-01-27 13:03:00,
2013-01-27 08:08:00,24.0,21.5,30.55,NNE,26,0.0,0.0,90,0.00,,CLR,0.00,VWS V14.01,2013-01-27 13:08:00,
2013-01-27 08:13:00,24.3,21.8,30.56,NNE,26,0.0,0.0,90,0.00,,CLR,0.00,VWS V14.01,2013-01-27 13:13:00,
2013-01-27 08:18:00,24.5,22.2,30.56,NNE,26,0.0,0.0,91,0.00,,CLR,0.00,VWS V14.01,2013-01-27 13:18:00,
2013-01-27 08:23:00,24.7,22.5,30.56,NNE,26,0.0,0.0,91,0.00,,CLR,0.00,VWS V14.01,2013-01-27 13:23:00,
2013-01-27 08:28:00,24.9,22.9,30.57,NNE,26,0.0,0.0,92,0.00,,CLR,0.00,VWS V14.01,2013-01-27 13:28:00,
2013-01-27 08:30:00,25.0,22.8,30.56,NNE,26,0.0,0.0,91,0.00,,CLR,0.00,VWS V14.01,2013-01-27 13:30:00,
2013-01-27 08:33:00,25.3,23.3,30.57,NNE,26,0.0,0.0,92,0.00,,CLR,0.00,VWS V14.01,2013-01-27 13:33:00,
2013-01-27 08:38:00,25.6,23.6,30.57,NNE,26,0.0,0.0,92,0.00,,CLR,0.00,VWS V14.01,2013-01-27 13:38:00,
2013-01-27 08:43:00,25.9,23.9,30.57,NNE,26,0.0,0.0,92,0.00,,CLR,0.00,VWS V14.01,2013-01-27 13:43:00,
2013-01-27 08:48:00,26.3,24.3,30.57,NNE,26,0.0,0.0,92,0.00,,CLR,0.00,VWS V14.01,2013-01-27 13:48:00,
2013-01-27 08:53:00,26.6,24.6,30.58,NNE,26,0.0,0.0,92,0.00,,CLR,0.00,VWS V14.01,2013-01-27 13:53:00,
2013-01-27 08:58:00,26.9,24.6,30.58,NNE,26,0.0,0.0,91,0.00,,CLR,0.00,VWS V14.01,2013-01-27 13:58:00,
2013-01-27 09:00:00,27.0,25.0,30.58,NNE,26,0.0,0.0,92,0.00,,CLR,0.00,VWS V14.01,2013-01-27 14:00:00,
2013-01-27 09:03:00,27.3,25.3,30.58,NNE,26,0.0,0.0,92,0.00,,BKN029,0.00,VWS V14.01,2013-01-27 14:03:00,
2013-01-27 09:08:00,27.6,25.3,30.58,NNE,26,0.0,0.0,91,0.00,,BKN029,0.00,VWS V14.01,2013-01-27 14:08:00,
2013-01-27 09:13:00,28.0,25.7,30.58,NNE,27,0.0,0.0,91,0.00,,BKN029,0.00,VWS V14.01,2013-01-27 14:13:00,
2013-01-27 09:18:00,28.4,25.9,30.58,NNE,26,0.0,0.0,90,0.00,,BKN029,0.00,VWS V14.01,2013-01-27 14:18:00,
2013-01-27 09:23:00,28.7,25.6,30.58,NNE,27,0.0,0.0,88,0.00,,BKN029,0.00,VWS V14.01,2013-01-27 14:23:00,
2013-01-27 09:28:00,28.8,25.7,30.58,NNE,27,0.0,0.0,88,0.00,,BKN029,0.00,VWS V14.01,2013-01-27 14:28:00,
2013-01-27 09:30:00,29.0,25.9,30.58,NNE,26,0.0,0.0,88,0.00,,CLR,0.00,VWS V14.01,2013-01-27 14:30:00,
2013-01-27 09:33:00,29.3,26.2,30.58,NE,41,1.0,2.0,88,0.00,,BKN029,0.00,VWS V14.01,2013-01-27 14:33:00,
2013-01-27 09:38:00,29.8,25.6,30.58,East,101,0.0,3.0,84,0.00,,BKN029,0.00,VWS V14.01,2013-01-27 14:38:00,
2013-01-27 09:43:00,30.3,25.8,30.58,ENE,77,0.0,3.0,83,0.00,,BKN029,0.00,VWS V14.01,2013-01-27 14:43:00,
2013-01-27 09:48:00,30.6,25.2,30.58,ENE,58,0.0,6.0,80,0.00,,BKN029,0.00,VWS V14.01,2013-01-27 14:48:00,
2013-01-27 09:53:00,30.9,25.5,30.58,East,95,2.0,6.0,80,0.00,,BKN029,0.00,VWS V14.01,2013-01-27 14:53:00,
2013-01-27 09:58:00,31.1,25.4,30.59,East,80,5.0,8.0,79,0.00,,BKN029,0.00,VWS V14.01,2013-01-27 14:58:00,
2013-01-27 10:00:00,31.1,25.4,30.59,SE,136,3.0,8.0,79,0.00,,CLR,0.00,VWS V14.01,2013-01-27 15:00:00,
2013-01-27 10:03:00,31.2,25.8,30.59,ESE,114,0.0,3.0,80,0.00,,SCT029,0.00,VWS V14.01,2013-01-27 15:03:00,
2013-01-27 10:08:00,31.4,26.0,30.59,SE,143,1.0,3.0,80,0.00,,SCT029,0.00,VWS V14.01,2013-01-27 15:08:00,
2013-01-27 10:13:00,31.4,26.0,30.59,ESE,107,5.0,6.0,80,0.00,,SCT029,0.00,VWS V14.01,2013-01-27 15:13:00,
2013-01-27 10:18:00,31.4,26.0,30.59,SSE,155,2.0,6.0,80,0.00,,SCT029,0.00,VWS V14.01,2013-01-27 15:18:00,
2013-01-27 10:23:00,31.4,25.6,30.60,SE,134,5.0,6.0,79,0.00,,SCT029,0.00,VWS V14.01,2013-01-27 15:23:00,
2013-01-27 10:28:00,31.5,26.0,30.60,SE,135,0.0,7.0,80,0.00,,SCT029,0.00,VWS V14.01,2013-01-27 15:28:00,
2013-01-27 10:30:00,31.5,26.0,30.60,ESE,103,1.0,7.0,80,0.00,,CLR,0.00,VWS V14.01,2013-01-27 15:30:00,
2013-01-27 10:33:00,31.7,26.2,30.60,East,82,3.0,8.0,80,0.00,,SCT029,0.00,VWS V14.01,2013-01-27 15:33:00,
2013-01-27 10:38:00,31.9,26.1,30.60,SE,139,5.0,8.0,79,0.00,,SCT029,0.00,VWS V14.01,2013-01-27 15:38:00,
2013-01-27 10:43:00,31.9,25.8,30.60,East,99,5.0,8.0,78,0.00,,SCT029,0.00,VWS V14.01,2013-01-27 15:43:00,
2013-01-27 10:48:00,32.0,25.9,30.60,ENE,77,3.0,8.0,78,0.00,,SCT029,0.00,VWS V14.01,2013-01-27 15:48:00,
2013-01-27 10:53:00,32.1,26.0,30.59,ESE,102,3.0,9.0,78,0.00,,SCT029,0.00,VWS V14.01,2013-01-27 15:53:00,
2013-01-27 10:58:00,32.2,25.8,30.60,SSE,158,4.0,9.0,77,0.00,,SCT029,0.00,VWS V14.01,2013-01-27 15:58:00,
2013-01-27 11:00:00,32.2,25.8,30.60,SSE,160,6.0,9.0,77,0.00,,CLR,0.00,VWS V14.01,2013-01-27 16:00:00,
2013-01-27 11:03:00,32.2,25.5,30.60,SSE,153,6.0,8.0,76,0.00,,CLR,0.00,VWS V14.01,2013-01-27 16:03:00,
2013-01-27 11:08:00,32.1,25.7,30.59,East,100,5.0,9.0,77,0.00,,CLR,0.00,VWS V14.01,2013-01-27 16:08:00,
2013-01-27 11:13:00,32.2,25.8,30.60,SE,134,6.0,9.0,77,0.00,,CLR,0.00,VWS V14.01,2013-01-27 16:13:00,
2013-01-27 11:18:00,32.4,25.4,30.60,ESE,111,5.0,9.0,75,0.00,,CLR,0.00,VWS V14.01,2013-01-27 16:18:00,
2013-01-27 11:23:00,32.6,25.9,30.60,SE,137,5.0,9.0,76,0.00,,CLR,0.00,VWS V14.01,2013-01-27 16:23:00,
2013-01-27 11:28:00,32.7,25.3,30.60,SE,135,4.0,9.0,74,0.01,,CLR,0.01,VWS V14.01,2013-01-27 16:28:00,
2013-01-27 11:30:00,32.7,25.3,30.60,ESE,115,3.0,9.0,74,0.01,,CLR,0.01,VWS V14.01,2013-01-27 16:30:00,
2013-01-27 11:33:00,32.7,25.7,30.60,SSE,165,4.0,7.0,75,0.01,,CLR,0.01,VWS V14.01,2013-01-27 16:33:00,
2013-01-27 11:38:00,32.9,25.9,30.60,East,85,6.0,9.0,75,0.01,,CLR,0.01,VWS V14.01,2013-01-27 16:38:00,
2013-01-27 11:43:00,33.1,25.7,30.60,East,97,5.0,9.0,74,0.01,,CLR,0.01,VWS V14.01,2013-01-27 16:43:00,
2013-01-27 11:48:00,33.3,25.6,30.60,East,89,3.0,9.0,73,0.01,,CLR,0.01,VWS V14.01,2013-01-27 16:48:00,
2013-01-27 11:53:00,33.4,25.7,30.59,SSE,148,4.0,9.0,73,0.01,,CLR,0.01,VWS V14.01,2013-01-27 16:53:00,
2013-01-27 11:58:00,33.4,25.7,30.59,SSE,148,1.0,9.0,73,0.01,,CLR,0.01,VWS V14.01,2013-01-27 16:58:00,
2013-01-27 12:00:00,33.4,26.0,30.59,SE,133,6.0,9.0,74,0.01,,CLR,0.01,VWS V14.01,2013-01-27 17:00:00,
2013-01-27 12:03:00,33.5,25.5,30.59,SSE,149,0.0,6.0,72,0.01,,SCT035,0.01,VWS V14.01,2013-01-27 17:03:00,
2013-01-27 12:08:00,33.7,26.0,30.59,SE,142,0.0,6.0,73,0.01,,SCT035,0.01,VWS V14.01,2013-01-27 17:08:00,
2013-01-27 12:13:00,34.0,25.6,30.58,SSE,167,3.0,6.0,71,0.01,,SCT035,0.01,VWS V14.01,2013-01-27 17:13:00,
2013-01-27 12:18:00,34.1,25.7,30.58,ESE,111,5.0,7.0,71,0.01,,SCT035,0.01,VWS V14.01,2013-01-27 17:18:00,
2013-01-27 12:23:00,34.1,25.7,30.57,SSE,148,3.0,7.0,71,0.01,,SCT035,0.01,VWS V14.01,2013-01-27 17:23:00,
2013-01-27 12:28:00,34.1,25.7,30.57,SE,141,0.0,7.0,71,0.01,,SCT035,0.01,VWS V14.01,2013-01-27 17:28:00,
2013-01-27 12:30:00,34.1,25.4,30.57,East,90,6.0,7.0,70,0.01,,CLR,0.01,VWS V14.01,2013-01-27 17:30:00,
2013-01-27 12:33:00,34.2,25.8,30.56,SE,138,3.0,7.0,71,0.00,,SCT035,0.01,VWS V14.01,2013-01-27 17:33:00,
2013-01-27 12:38:00,34.3,25.9,30.56,SE,137,4.0,7.0,71,0.00,,SCT035,0.01,VWS V14.01,2013-01-27 17:38:00,
2013-01-27 12:43:00,34.4,25.6,30.55,SE,134,3.0,3.0,70,0.00,,,0.01,VWS V14.01,2013-01-27 17:43:00,
2013-01-27 12:48:00,34.4,25.6,30.55,SSW,192,4.0,6.0,70,0.00,,,0.01,VWS V14.01,2013-01-27 17:48:00,
2013-01-27 12:53:00,34.6,26.2,30.54,East,82,2.0,6.0,71,0.00,,,0.01,VWS V14.01,2013-01-27 17:53:00,
2013-01-27 12:58:00,34.7,25.6,30.54,SSE,163,4.0,6.0,69,0.00,,,0.01,VWS V14.01,2013-01-27 17:58:00,
2013-01-27 13:00:00,34.7,25.6,30.54,South,175,1.0,6.0,69,0.00,,CLR,0.01,VWS V14.01,2013-01-27 18:00:00,
2013-01-27 13:03:00,34.9,25.8,30.54,ESE,123,2.0,5.0,69,0.00,,OVC033,0.01,VWS V14.01,2013-01-27 18:03:00,
2013-01-27 13:08:00,35.3,26.2,30.54,SSE,153,8.0,8.0,69,0.00,,OVC033,0.01,VWS V14.01,2013-01-27 18:08:00,
2013-01-27 13:13:00,35.3,25.5,30.54,SSE,165,0.0,8.0,67,0.00,,OVC033,0.01,VWS V14.01,2013-01-27 18:13:00,
2013-01-27 13:18:00,35.3,25.8,30.54,WSW,254,4.0,8.0,68,0.00,,OVC033,0.01,VWS V14.01,2013-01-27 18:18:00,
2013-01-27 13:23:00,35.7,26.9,30.54,WSW,257,3.0,8.0,70,0.00,,OVC033,0.01,VWS V14.01,2013-01-27 18:23:00,
2013-01-27 13:29:00,36.2,26.7,30.54,South,187,4.0,8.0,68,0.00,,OVC033,0.01,VWS V14.01,2013-01-27 18:29:00,
2013-01-27 13:30:00,36.2,26.3,30.54,SSE,167,3.0,8.0,67,0.00,,CLR,0.01,VWS V14.01,2013-01-27 18:30:00,
2013-01-27 13:34:00,36.1,25.1,30.54,SSW,211,4.0,5.0,64,0.00,,OVC033,0.01,VWS V14.01,2013-01-27 18:34:00,
2013-01-27 13:38:00,36.2,26.3,30.54,SSE,167,3.0,6.0,67,0.01,,OVC033,0.02,VWS V14.01,2013-01-27 18:38:00,
2013-01-27 13:44:00,36.3,26.4,30.54,SSW,203,6.0,9.0,67,0.01,,OVC033,0.02,VWS V14.01,2013-01-27 18:44:00,
2013-01-27 13:49:00,36.1,26.2,30.54,South,184,1.0,9.0,67,0.01,,OVC033,0.02,VWS V14.01,2013-01-27 18:49:00,
2013-01-27 13:54:00,36.1,25.9,30.54,SSW,201,2.0,9.0,66,0.01,,OVC033,0.02,VWS V14.01,2013-01-27 18:54:00,
2013-01-27 13:59:00,36.0,25.4,30.54,SSE,159,3.0,9.0,65,0.01,,OVC033,0.02,VWS V14.01,2013-01-27 18:59:00,
2013-01-27 14:00:00,36.0,25.4,30.54,SSW,194,3.0,9.0,65,0.01,,CLR,0.02,VWS V14.01,2013-01-27 19:00:00,
2013-01-27 14:04:00,36.0,26.1,30.54,SSE,166,4.0,9.0,67,0.01,,BKN031,0.02,VWS V14.01,2013-01-27 19:04:00,
2013-01-27 14:09:00,36.2,26.3,30.54,SSW,209,2.0,9.0,67,0.01,,BKN031,0.02,VWS V14.01,2013-01-27 19:09:00,
2013-01-27 14:14:00,36.5,26.6,30.54,SSE,155,3.0,9.0,67,0.01,,BKN031,0.02,VWS V14.01,2013-01-27 19:14:00,
2013-01-27 14:19:00,36.7,27.1,30.53,WSW,252,6.0,9.0,68,0.01,,BKN031,0.02,VWS V14.01,2013-01-27 19:19:00,
2013-01-27 14:24:00,36.7,26.4,30.53,SW,217,4.0,9.0,66,0.01,,BKN031,0.02,VWS V14.01,2013-01-27 19:24:00,
2013-01-27 14:29:00,36.5,27.0,30.53,South,186,7.0,10.0,68,0.01,,BKN031,0.02,VWS V14.01,2013-01-27 19:29:00,
2013-01-27 14:30:00,36.6,27.0,30.53,South,186,7.0,10.0,68,0.01,,CLR,0.02,VWS V14.01,2013-01-27 19:30:00,
2013-01-27 14:34:00,36.7,26.4,30.53,SW,230,7.0,7.0,66,0.01,,BKN031,0.02,VWS V14.01,2013-01-27 19:34:00,
2013-01-27 14:39:00,36.5,26.2,30.53,SSW,213,2.0,10.0,66,0.01,,BKN031,0.02,VWS V14.01,2013-01-27 19:39:00,
2013-01-27 14:44:00,36.5,27.0,30.53,SSW,211,6.0,10.0,68,0.01,,BKN031,0.02,VWS V14.01,2013-01-27 19:44:00,
2013-01-27 14:49:00,36.6,26.7,30.53,SW,215,0.0,10.0,67,0.01,,BKN031,0.02,VWS V14.01,2013-01-27 19:49:00,
2013-01-27 14:54:00,37.1,27.5,30.52,SSW,208,0.0,10.0,68,0.01,,BKN031,0.02,VWS V14.01,2013-01-27 19:54:00,
2013-01-27 14:59:00,37.4,27.1,30.52,WSW,245,3.0,10.0,66,0.01,,BKN031,0.02,VWS V14.01,2013-01-27 19:59:00,
2013-01-27 15:00:00,37.3,26.6,30.52,WSW,245,2.0,10.0,65,0.01,,CLR,0.02,VWS V14.01,2013-01-27 20:00:00,
2013-01-27 15:04:00,37.1,26.8,30.52,SW,218,2.0,6.0,66,0.00,,SCT033,0.02,VWS V14.01,2013-01-27 20:04:00,
2013-01-27 15:09:00,36.9,26.6,30.52,SSW,193,7.0,7.0,66,0.00,,SCT033,0.02,VWS V14.01,2013-01-27 20:09:00,
2013-01-27 15:14:00,36.7,26.4,30.52,SSW,210,3.0,8.0,66,0.00,,SCT033,0.02,VWS V14.01,2013-01-27 20:14:00,
2013-01-27 15:19:00,36.6,26.3,30.52,South,180,7.0,8.0,66,0.00,,SCT033,0.02,VWS V14.01,2013-01-27 20:19:00,
2013-01-27 15:24:00,36.5,27.0,30.52,South,183,5.0,8.0,68,0.00,,SCT033,0.02,VWS V14.01,2013-01-27 20:24:00,
2013-01-27 15:29:00,36.5,27.0,30.52,SW,217,0.0,8.0,68,0.00,,SCT033,0.02,VWS V14.01,2013-01-27 20:29:00,
2013-01-27 15:30:00,36.6,27.0,30.52,South,188,2.0,8.0,68,0.00,,CLR,0.02,VWS V14.01,2013-01-27 20:30:00,
2013-01-27 15:34:00,36.7,27.1,30.52,SW,222,3.0,6.0,68,0.01,,SCT033,0.03,VWS V14.01,2013-01-27 20:34:00,
2013-01-27 15:39:00,36.8,27.6,30.52,South,190,1.0,6.0,69,0.01,,SCT033,0.03,VWS V14.01,2013-01-27 20:39:00,
2013-01-27 15:44:00,36.8,26.9,30.52,SSW,212,0.0,6.0,67,0.01,,SCT033,0.03,VWS V14.01,2013-01-27 20:44:00,
2013-01-27 15:49:00,36.7,27.1,30.52,SW,218,3.0,6.0,68,0.01,,SCT033,0.03,VWS V14.01,2013-01-27 20:49:00,
2013-01-27 15:54:00,36.6,27.0,30.53,WSW,246,0.0,6.0,68,0.01,,SCT033,0.03,VWS V14.01,2013-01-27 20:54:00,
2013-01-27 15:59:00,36.6,27.4,30.52,SE,136,0.0,6.0,69,0.01,,SCT033,0.03,VWS V14.01,2013-01-27 20:59:00,
2013-01-27 16:00:00,36.6,27.4,30.52,SE,136,0.0,6.0,69,0.01,,CLR,0.03,VWS V14.01,2013-01-27 21:00:00,
2013-01-27 16:04:00,36.7,27.1,30.51,SE,136,0.0,0.0,68,0.01,,SCT033,0.03,VWS V14.01,2013-01-27 21:04:00,
2013-01-27 16:09:00,36.7,27.5,30.52,SSE,154,0.0,1.0,69,0.01,,SCT033,0.03,VWS V14.01,2013-01-27 21:09:00,
2013-01-27 16:14:00,36.7,27.1,30.52,WSW,244,0.0,2.0,68,0.01,,SCT033,0.03,VWS V14.01,2013-01-27 21:14:00,
2013-01-27 16:19:00,36.7,27.1,30.52,WSW,252,0.0,2.0,68,0.01,,SCT033,0.03,VWS V14.01,2013-01-27 21:19:00,
2013-01-27 16:24:00,36.7,27.1,30.52,WSW,250,0.0,2.0,68,0.01,,SCT033,0.03,VWS V14.01,2013-01-27 21:24:00,
2013-01-27 16:29:00,36.6,27.4,30.52,WSW,250,0.0,2.0,69,0.01,,SCT033,0.03,VWS V14.01,2013-01-27 21:29:00,
2013-01-27 16:30:00,36.6,27.4,30.52,WSW,250,0.0,2.0,69,0.01,,CLR,0.03,VWS V14.01,2013-01-27 21:30:00,
2013-01-27 16:34:00,36.6,27.4,30.52,WSW,250,0.0,0.0,69,0.01,,SCT033,0.03,VWS V14.01,2013-01-27 21:34:00,
2013-01-27 16:39:00,36.6,27.4,30.53,WSW,250,0.0,0.0,69,0.01,,SCT033,0.03,VWS V14.01,2013-01-27 21:39:00,
2013-01-27 16:44:00,36.6,27.4,30.52,WSW,250,0.0,0.0,69,0.01,,SCT033,0.03,VWS V14.01,2013-01-27 21:44:00,
2013-01-27 16:49:00,36.5,27.7,30.53,WSW,250,0.0,1.0,70,0.01,,SCT033,0.03,VWS V14.01,2013-01-27 21:49:00,
2013-01-27 16:54:00,36.4,27.6,30.52,WSW,250,0.0,1.0,70,0.01,,SCT033,0.03,VWS V14.01,2013-01-27 21:54:00,
2013-01-27 16:59:00,36.4,27.9,30.52,WSW,250,0.0,1.0,71,0.01,,SCT033,0.03,VWS V14.01,2013-01-27 21:59:00,
2013-01-27 17:00:00,36.4,27.9,30.52,WSW,250,0.0,1.0,71,0.01,,CLR,0.03,VWS V14.01,2013-01-27 22:00:00,
2013-01-27 17:04:00,36.3,27.8,30.52,WSW,250,0.0,0.0,71,0.00,,CLR,0.03,VWS V14.01,2013-01-27 22:04:00,
2013-01-27 17:09:00,36.2,27.4,30.52,WSW,250,0.0,0.0,70,0.00,,CLR,0.03,VWS V14.01,2013-01-27 22:09:00,
2013-01-27 17:14:00,36.2,27.4,30.53,SW,226,0.0,0.0,70,0.00,,CLR,0.03,VWS V14.01,2013-01-27 22:14:00,
2013-01-27 17:19:00,36.2,27.4,30.53,SW,226,0.0,1.0,70,0.00,,CLR,0.03,VWS V14.01,2013-01-27 22:19:00,
2013-01-27 17:24:00,36.1,27.3,30.53,SW,226,0.0,1.0,70,0.00,,CLR,0.03,VWS V14.01,2013-01-27 22:24:00,
2013-01-27 17:29:00,36.0,27.2,30.52,SW,226,0.0,1.0,70,0.00,,CLR,0.03,VWS V14.01,2013-01-27 22:29:00,
2013-01-27 17:30:00,36.0,27.2,30.52,SW,226,0.0,1.0,70,0.00,,CLR,0.03,VWS V14.01,2013-01-27 22:30:00,
2013-01-27 17:34:00,35.9,27.1,30.53,SW,226,0.0,0.0,70,0.00,,CLR,0.03,VWS V14.01,2013-01-27 22:34:00,
2013-01-27 17:39:00,35.7,26.9,30.52,SW,226,0.0,0.0,70,0.00,,CLR,0.03,VWS V14.01,2013-01-27 22:39:00,
2013-01-27 17:44:00,35.5,26.7,30.53,SW,226,0.0,0.0,70,0.00,,CLR,0.03,VWS V14.01,2013-01-27 22:44:00,
2013-01-27 17:49:00,35.4,27.0,30.53,SW,226,0.0,0.0,71,0.00,,CLR,0.03,VWS V14.01,2013-01-27 22:49:00,
2013-01-27 17:54:00,35.2,27.1,30.53,SW,226,0.0,0.0,72,0.00,,CLR,0.03,VWS V14.01,2013-01-27 22:54:00,
2013-01-27 17:59:00,35.1,27.0,30.52,SW,226,0.0,0.0,72,0.00,,CLR,0.03,VWS V14.01,2013-01-27 22:59:00,
2013-01-27 18:00:00,35.1,27.0,30.52,SW,226,0.0,0.0,72,0.00,,CLR,0.03,VWS V14.01,2013-01-27 23:00:00,
2013-01-27 18:04:00,35.0,26.9,30.52,SW,225,0.0,0.0,72,0.00,,CLR,0.03,VWS V14.01,2013-01-27 23:04:00,
2013-01-27 18:09:00,34.8,27.0,30.52,ESE,120,0.0,2.0,73,0.00,,CLR,0.03,VWS V14.01,2013-01-27 23:09:00,
2013-01-27 18:14:00,34.7,27.0,30.52,ESE,109,0.0,2.0,73,0.00,,CLR,0.03,VWS V14.01,2013-01-27 23:14:00,
2013-01-27 18:19:00,34.6,27.2,30.52,East,101,0.0,2.0,74,0.00,,CLR,0.03,VWS V14.01,2013-01-27 23:19:00,
2013-01-27 18:24:00,34.5,27.4,30.53,East,101,0.0,2.0,75,0.00,,CLR,0.03,VWS V14.01,2013-01-27 23:24:00,
2013-01-27 18:29:00,34.2,27.8,30.53,East,101,0.0,2.0,77,0.00,,CLR,0.03,VWS V14.01,2013-01-27 23:29:00,
2013-01-27 18:30:00,34.2,27.8,30.53,East,101,0.0,2.0,77,0.00,,CLR,0.03,VWS V14.01,2013-01-27 23:30:00,
2013-01-27 18:34:00,34.1,27.3,30.52,East,101,0.0,0.0,76,0.00,,CLR,0.03,VWS V14.01,2013-01-27 23:34:00,
2013-01-27 18:39:00,34.0,27.2,30.52,East,101,0.0,0.0,76,0.00,,CLR,0.03,VWS V14.01,2013-01-27 23:39:00,
2013-01-27 18:44:00,33.9,27.1,30.52,ENE,71,0.0,2.0,76,0.00,,CLR,0.03,VWS V14.01,2013-01-27 23:44:00,
2013-01-27 18:49:00,33.9,27.8,30.52,ENE,71,0.0,2.0,78,0.00,,CLR,0.03,VWS V14.01,2013-01-27 23:49:00,
2013-01-27 18:54:00,33.9,28.1,30.52,ENE,71,0.0,2.0,79,0.00,,CLR,0.03,VWS V14.01,2013-01-27 23:54:00,
2013-01-27 18:59:00,33.7,27.6,30.51,ENE,71,0.0,2.0,78,0.00,,CLR,0.03,VWS V14.01,2013-01-27 23:59:00,
2013-01-27 19:00:00,33.7,27.6,30.51,ENE,71,0.0,2.0,78,0.00,,CLR,0.03,VWS V14.01,2013-01-28 00:00:00,
2013-01-27 19:04:00,33.6,27.5,30.51,ENE,74,0.0,0.0,78,0.00,,CLR,0.03,VWS V14.01,2013-01-28 00:04:00,
2013-01-27 19:09:00,33.5,27.7,30.51,East,86,1.0,2.0,79,0.00,,CLR,0.03,VWS V14.01,2013-01-28 00:09:00,
2013-01-27 19:14:00,33.6,28.1,30.51,ESE,113,1.0,3.0,80,0.00,,CLR,0.03,VWS V14.01,2013-01-28 00:14:00,
2013-01-27 19:19:00,33.6,28.1,30.51,ESE,119,0.0,3.0,80,0.00,,CLR,0.03,VWS V14.01,2013-01-28 00:19:00,
2013-01-27 19:24:00,33.5,28.9,30.52,ESE,113,0.0,3.0,83,0.00,,CLR,0.03,VWS V14.01,2013-01-28 00:24:00,
2013-01-27 19:29:00,33.4,28.2,30.52,SE,126,0.0,3.0,81,0.00,,CLR,0.03,VWS V14.01,2013-01-28 00:29:00,
2013-01-27 19:30:00,33.3,28.1,30.52,SE,126,0.0,3.0,81,0.00,,CLR,0.03,VWS V14.01,2013-01-28 00:30:00,
2013-01-27 19:34:00,33.3,28.1,30.52,SE,126,0.0,1.0,81,0.00,,CLR,0.03,VWS V14.01,2013-01-28 00:34:00,
2013-01-27 19:39:00,33.3,28.1,30.52,SE,126,0.0,1.0,81,0.00,,CLR,0.03,VWS V14.01,2013-01-28 00:39:00,
2013-01-27 19:44:00,33.2,28.3,30.52,SE,126,0.0,1.0,82,0.00,,CLR,0.03,VWS V14.01,2013-01-28 00:44:00,
2013-01-27 19:49:00,33.1,27.9,30.52,SE,126,0.0,1.0,81,0.00,,CLR,0.03,VWS V14.01,2013-01-28 00:49:00,
2013-01-27 19:54:00,33.0,27.8,30.52,SE,126,0.0,1.0,81,0.00,,CLR,0.03,VWS V14.01,2013-01-28 00:54:00,
2013-01-27 19:59:00,33.0,27.5,30.52,SE,126,0.0,1.0,80,0.00,,CLR,0.03,VWS V14.01,2013-01-28 00:59:00,
2013-01-27 20:00:00,33.0,27.5,30.52,SE,126,0.0,1.0,80,0.00,,CLR,0.03,VWS V14.01,2013-01-28 01:00:00,
2013-01-27 20:04:00,33.0,27.5,30.51,SE,126,0.0,0.0,80,0.00,,CLR,0.03,VWS V14.01,2013-01-28 01:04:00,
2013-01-27 20:09:00,32.9,28.3,30.52,SE,126,0.0,0.0,83,0.00,,CLR,0.03,VWS V14.01,2013-01-28 01:09:00,
2013-01-27 20:14:00,32.7,28.1,30.51,SE,126,0.0,0.0,83,0.00,,CLR,0.03,VWS V14.01,2013-01-28 01:14:00,
2013-01-27 20:19:00,32.5,27.9,30.51,SE,126,0.0,0.0,83,0.00,,CLR,0.03,VWS V14.01,2013-01-28 01:19:00,
2013-01-27 20:24:00,32.5,28.5,30.52,SE,126,0.0,0.0,85,0.00,,CLR,0.03,VWS V14.01,2013-01-28 01:24:00,
2013-01-27 20:29:00,32.4,28.1,30.51,SE,126,0.0,0.0,84,0.00,,CLR,0.03,VWS V14.01,2013-01-28 01:29:00,
2013-01-27 20:30:00,32.4,28.1,30.51,SE,126,0.0,0.0,84,0.00,,CLR,0.03,VWS V14.01,2013-01-28 01:30:00,
2013-01-27 20:34:00,32.4,28.4,30.51,SE,128,0.0,0.0,85,0.00,,CLR,0.03,VWS V14.01,2013-01-28 01:34:00,
2013-01-27 20:50:00,32.4,28.4,30.51,SE,128,0.0,0.0,85,0.00,,CLR,0.03,VWS V14.01,2013-01-28 01:50:00,
2013-01-27 20:55:00,32.3,28.6,30.51,SE,128,0.0,0.0,86,0.00,,CLR,0.03,VWS V14.01,2013-01-28 01:55:00,
2013-01-27 21:00:00,32.3,28.6,30.51,SE,128,0.0,0.0,86,0.00,,CLR,0.03,VWS V14.01,2013-01-28 02:00:00,
2013-01-27 21:05:00,32.2,27.9,30.51,SE,128,0.0,0.0,84,0.00,,CLR,0.03,VWS V14.01,2013-01-28 02:05:00,
2013-01-27 21:10:00,32.2,27.9,30.51,SE,128,0.0,0.0,84,0.00,,CLR,0.03,VWS V14.01,2013-01-28 02:10:00,
2013-01-27 21:15:00,32.2,28.2,30.50,SE,128,0.0,0.0,85,0.00,,CLR,0.03,VWS V14.01,2013-01-28 02:15:00,
2013-01-27 21:20:00,32.2,27.9,30.50,SE,128,0.0,0.0,84,0.00,,CLR,0.03,VWS V14.01,2013-01-28 02:20:00,
2013-01-27 21:25:00,32.1,27.8,30.50,SE,127,0.0,0.0,84,0.00,,CLR,0.03,VWS V14.01,2013-01-28 02:25:00,
2013-01-27 21:30:00,32.0,27.7,30.50,SE,127,0.0,0.0,84,0.00,,CLR,0.03,VWS V14.01,2013-01-28 02:30:00,
2013-01-27 21:35:00,31.9,27.6,30.50,SE,127,0.0,0.0,84,0.00,,CLR,0.03,VWS V14.01,2013-01-28 02:35:00,
2013-01-27 21:40:00,31.7,27.7,30.50,SE,127,0.0,0.0,85,0.00,,CLR,0.03,VWS V14.01,2013-01-28 02:40:00,
2013-01-27 21:45:00,31.5,27.8,30.50,SE,127,0.0,0.0,86,0.00,,CLR,0.03,VWS V14.01,2013-01-28 02:45:00,
2013-01-27 21:50:00,31.3,27.6,30.50,SE,127,0.0,0.0,86,0.00,,CLR,0.03,VWS V14.01,2013-01-28 02:50:00,
2013-01-27 21:55:00,31.1,27.7,30.50,SE,127,0.0,0.0,87,0.00,,CLR,0.03,VWS V14.01,2013-01-28 02:55:00,
2013-01-27 22:00:00,31.0,27.6,30.50,SE,127,0.0,0.0,87,0.00,,SCT120,0.03,VWS V14.01,2013-01-28 03:00:00,
2013-01-27 22:05:00,30.8,27.4,30.51,SE,127,0.0,0.0,87,0.00,,SCT120,0.03,VWS V14.01,2013-01-28 03:05:00,
2013-01-27 22:10:00,30.6,27.5,30.51,SE,127,0.0,0.0,88,0.00,,SCT120,0.03,VWS V14.01,2013-01-28 03:10:00,
2013-01-27 22:15:00,30.5,27.4,30.51,SE,127,0.0,0.0,88,0.00,,SCT120,0.03,VWS V14.01,2013-01-28 03:15:00,
2013-01-27 22:20:00,30.4,27.3,30.50,SE,127,0.0,0.0,88,0.00,,SCT120,0.03,VWS V14.01,2013-01-28 03:20:00,
2013-01-27 22:25:00,30.4,27.3,30.50,SE,127,0.0,0.0,88,0.00,,SCT120,0.03,VWS V14.01,2013-01-28 03:25:00,
2013-01-27 22:30:00,30.4,27.3,30.50,SE,127,0.0,0.0,88,0.00,,SCT120,0.03,VWS V14.01,2013-01-28 03:30:00,
2013-01-27 22:35:00,30.4,27.3,30.50,SE,127,0.0,0.0,88,0.00,,SCT120,0.03,VWS V14.01,2013-01-28 03:35:00,
2013-01-27 22:40:00,30.3,27.2,30.50,SE,127,0.0,0.0,88,0.00,,SCT120,0.03,VWS V14.01,2013-01-28 03:40:00,
2013-01-27 22:45:00,30.1,27.3,30.49,SE,127,0.0,0.0,89,0.00,,SCT120,0.03,VWS V14.01,2013-01-28 03:45:00,
2013-01-27 22:50:00,30.0,27.2,30.49,SE,127,0.0,0.0,89,0.00,,SCT120,0.03,VWS V14.01,2013-01-28 03:50:00,
2013-01-27 22:55:00,29.8,27.0,30.49,SE,127,0.0,0.0,89,0.00,,SCT120,0.03,VWS V14.01,2013-01-28 03:55:00,
2013-01-27 23:00:00,29.7,26.9,30.49,SE,127,0.0,0.0,89,0.00,,CLR,0.03,VWS V14.01,2013-01-28 04:00:00,
2013-01-27 23:05:00,29.7,27.1,30.49,SE,127,0.0,0.0,90,0.00,,CLR,0.03,VWS V14.01,2013-01-28 04:05:00,
2013-01-27 23:10:00,29.6,27.3,30.49,SE,127,0.0,0.0,91,0.00,,CLR,0.03,VWS V14.01,2013-01-28 04:10:00,
2013-01-27 23:15:00,29.6,27.3,30.49,SE,127,0.0,0.0,91,0.00,,CLR,0.03,VWS V14.01,2013-01-28 04:15:00,
2013-01-27 23:20:00,29.6,27.3,30.49,SE,127,0.0,0.0,91,0.00,,CLR,0.03,VWS V14.01,2013-01-28 04:20:00,
2013-01-27 23:25:00,29.7,27.7,30.49,SE,127,0.0,0.0,92,0.00,,CLR,0.03,VWS V14.01,2013-01-28 04:25:00,
2013-01-27 23:30:00,29.7,27.7,30.49,SE,127,0.0,0.0,92,0.00,,CLR,0.03,VWS V14.01,2013-01-28 04:30:00,
2013-01-27 23:35:00,29.6,27.3,30.49,SE,127,0.0,0.0,91,0.00,,CLR,0.03,VWS V14.01,2013-01-28 04:35:00,
2013-01-27 23:40:00,29.6,27.3,30.49,SE,127,0.0,0.0,91,0.00,,CLR,0.03,VWS V14.01,2013-01-28 04:40:00,
2013-01-27 23:45:00,29.8,27.5,30.49,SE,127,0.0,0.0,91,0.00,,CLR,0.03,VWS V14.01,2013-01-28 04:45:00,
2013-01-27 23:50:00,30.0,27.7,30.48,SE,127,0.0,0.0,91,0.00,,CLR,0.03,VWS V14.01,2013-01-28 04:50:00,
2013-01-27 23:55:00,30.1,28.1,30.48,SE,127,0.0,0.0,92,0.00,,CLR,0.03,VWS V14.01,2013-01-28 04:55:00,